GFSFLT2_850_thetae_057.txt.gz
Theta_e
330 329 331 329 326 319 314 312 309 311 311 311 312 311 311 312 313 313 313 313 314 314 314 316 318 318 318 317 317 317 317 317
331 330 326 322 323 317 313 310 311 311 312 312 311 311 311 311 312 313 313 313 314 316 317 319 319 319 318 318 318 318 317 316
328 321 319 322 323 315 313 310 312 312 312 312 312 312 312 312 313 313 314 316 318 320 320 320 320 320 320 319 318 317 315 314
322 322 318 324 319 315 312 312 313 313 313 316 318 322 323 321 318 318 318 320 321 321 321 321 321 320 319 319 318 316 315 314
321 320 324 326 318 314 311 313 314 315 322 323 323 325 325 325 322 322 322 322 322 322 322 321 321 320 319 318 316 314 311 310
320 324 325 322 316 313 314 315 319 324 326 326 324 323 325 325 324 323 323 322 323 322 322 321 320 319 316 312 308 307 307 307
324 324 325 319 315 314 317 324 326 326 325 324 322 324 325 324 325 324 323 323 322 321 321 319 318 312 307 305 303 301 301 301
325 324 322 315 314 316 318 325 325 326 327 326 324 325 324 325 323 322 323 321 320 320 319 316 309 306 302 300 299 299 299 299
326 321 316 315 319 321 322 322 322 321 322 324 326 324 324 324 323 323 322 322 320 319 312 308 304 301 299 298 299 299 299 298
328 326 322 320 322 325 324 325 324 326 326 326 325 325 325 325 324 323 322 321 317 309 307 304 301 299 298 298 298 297 297 298
328 327 325 324 325 325 326 326 327 327 327 325 322 322 324 323 322 322 317 310 308 308 306 302 299 298 298 298 296 296 300 300
328 326 325 325 325 326 328 328 328 326 323 319 319 321 321 319 315 309 309 309 309 307 304 301 299 299 298 297 296 298 300 298
327 326 325 324 326 327 327 327 326 321 318 318 318 317 314 310 309 309 309 309 308 305 303 301 301 301 299 296 297 298 296 298
323 321 321 322 325 326 326 325 322 319 319 319 317 313 310 310 310 310 310 309 307 305 303 303 302 302 301 297 296 295 297 297
319 314 315 322 326 327 326 321 320 322 322 320 316 311 310 310 312 311 309 307 306 306 305 304 303 302 299 295 295 296 295 295
325 320 321 324 327 328 325 321 322 323 322 318 314 310 312 312 312 310 308 307 306 305 304 303 303 300 296 294 294 294 296 297
326 324 325 327 327 326 323 322 324 322 318 315 311 312 312 312 310 308 307 305 305 304 304 303 300 296 294 294 293 293 294 296
326 327 328 328 328 327 326 324 321 319 317 313 313 313 312 310 308 306 305 305 304 303 302 299 297 293 293 293 293 294 295 295
327 328 328 329 328 327 325 323 319 316 314 314 314 314 313 309 307 305 307 304 304 303 302 297 294 292 292 292 293 294 296 296
328 328 329 329 328 326 325 324 318 316 316 316 315 314 311 307 306 308 304 305 301 300 296 294 292 292 293 294 294 295 296 295

GFSFLT2_850_thetae_063.txt.gz
Theta_e
333 331 333 330 323 316 311 310 309 309 311 310 310 312 313 313 314 314 314 315 316 317 317 317 318 318 318 318 317 317 315 313
332 331 331 320 316 313 311 310 309 311 311 310 311 313 313 313 313 314 314 316 316 318 318 319 319 319 319 318 318 316 313 312
332 329 325 321 318 314 312 310 310 311 311 310 312 313 313 313 313 314 314 315 318 319 319 320 320 320 319 319 317 313 310 309
330 327 321 319 319 317 313 310 310 311 311 310 312 313 313 313 314 315 317 320 320 320 320 320 320 320 319 318 314 308 307 306
326 323 322 321 319 315 311 310 311 312 311 311 312 312 312 313 314 317 320 321 321 321 321 321 321 320 319 315 307 305 303 301
322 321 319 314 314 311 311 311 312 312 311 312 312 312 313 315 318 320 322 322 322 321 321 321 319 318 317 307 304 301 300 299
320 315 313 314 313 313 311 311 313 312 312 315 320 321 322 321 321 322 322 322 322 321 321 320 319 317 307 303 301 300 299 299
315 314 314 321 321 315 312 313 313 315 319 322 324 325 325 324 324 323 323 322 322 321 320 319 316 306 302 300 299 299 298 297
318 321 324 324 321 314 312 314 315 322 324 325 324 323 324 324 323 323 322 322 321 320 319 315 306 302 300 298 297 297 297 298
321 324 325 323 320 315 314 315 320 324 325 325 325 324 322 323 324 323 322 321 321 319 313 306 303 300 299 298 298 297 297 297
321 324 325 324 320 316 315 317 324 326 324 324 323 323 323 323 324 323 322 320 319 311 307 306 304 302 300 300 299 297 297 297
322 325 324 322 319 316 316 320 323 323 322 322 324 324 324 323 324 322 321 320 311 308 307 306 304 303 302 302 299 297 297 297
327 324 324 320 317 317 321 321 322 325 324 325 325 324 321 322 323 322 320 310 308 308 307 306 305 304 303 301 299 298 297 296
327 326 326 324 321 318 322 324 325 325 325 325 324 320 320 322 321 318 310 309 309 307 306 306 304 303 301 301 299 299 296 294
325 326 327 327 325 323 324 324 325 325 325 325 322 319 319 319 316 310 309 309 308 307 306 304 303 302 302 299 298 297 295 295
322 326 327 327 327 326 324 324 324 324 324 324 320 319 319 317 311 310 309 310 308 305 304 304 302 302 303 297 294 293 296 296
324 326 327 327 327 326 325 324 323 324 325 322 319 319 318 314 311 310 310 309 307 306 304 304 304 301 298 294 293 292 292 294
325 325 326 326 326 326 324 324 322 324 324 321 319 320 317 312 311 310 310 309 307 306 306 307 305 303 301 293 292 293 295 296
323 325 326 326 326 325 323 322 324 325 323 320 321 320 316 312 311 311 310 309 307 305 308 307 306 305 295 293 292 292 292 293
322 323 325 324 324 324 324 322 322 325 324 320 322 320 317 314 312 311 309 307 305 307 307 306 303 296 294 292 291 292 291 291

GFSFLT2_850_thetae_066.txt.gz
Theta_e
333 332 333 332 324 316 311 309 308 310 310 310 311 312 314 315 316 315 315 315 316 316 317 317 318 318 318 318 316 314 318 318
332 333 334 327 319 314 310 308 309 311 310 310 312 313 314 314 314 314 315 316 317 317 318 319 319 319 318 318 316 314 316 316
332 332 324 323 318 311 309 310 311 311 310 312 313 313 314 314 315 316 316 317 318 319 319 320 320 319 319 317 313 314 314 314
332 329 328 319 314 312 313 315 313 310 311 313 314 314 320 314 314 315 317 319 319 320 320 320 319 318 318 314 308 307 310 311
325 326 319 317 315 312 312 316 317 315 310 313 314 314 314 314 315 317 319 320 320 320 320 320 320 318 318 309 305 306 305 306
323 322 319 318 317 317 315 311 313 311 310 311 313 313 313 316 320 319 320 321 321 321 321 321 319 317 316 307 304 303 303 304
321 319 320 318 317 313 314 318 314 311 311 311 312 312 313 315 319 320 321 321 321 321 321 319 319 317 309 305 302 300 299 303
322 321 318 315 316 320 314 311 314 311 311 311 312 313 317 319 320 321 322 322 322 321 319 319 316 311 306 303 301 300 299 301
318 318 317 319 323 318 314 316 313 312 312 314 320 322 324 324 323 323 323 322 322 321 320 318 313 306 304 303 301 300 299 299
320 323 322 323 323 315 313 314 314 315 317 321 323 324 323 323 323 323 323 322 321 320 318 314 307 305 304 303 302 300 298 298
322 326 324 322 321 318 314 314 314 320 320 324 325 324 322 322 323 323 322 322 320 319 314 308 307 306 305 305 303 303 301 301
326 327 327 324 323 317 314 315 321 324 324 325 324 323 322 322 323 323 322 321 319 315 308 308 307 307 305 305 304 304 303 302
326 327 328 326 324 322 321 322 324 324 325 324 321 321 323 323 323 323 321 318 316 308 308 307 308 308 307 307 305 304 303 302
327 329 329 327 326 323 321 320 323 325 320 323 323 323 324 323 322 322 320 318 311 309 308 308 308 307 306 306 307 306 304 303
328 330 329 328 327 323 323 324 325 324 323 324 323 324 322 321 322 321 320 313 309 309 309 309 308 306 306 305 303 306 302 301
328 330 329 328 327 326 324 324 325 325 324 323 324 324 321 320 321 320 314 309 309 310 309 308 307 305 305 306 300 298 299 300
326 328 329 329 328 328 326 326 326 327 323 323 324 323 320 320 319 317 311 309 309 309 308 307 307 308 307 304 299 300 299 299
327 327 327 328 327 327 327 327 327 325 324 323 324 322 319 319 317 314 311 310 309 310 309 308 308 307 306 305 300 299 298 298
325 325 327 327 326 327 326 326 326 324 322 324 324 323 319 318 317 314 311 310 309 309 308 307 309 307 306 300 298 298 298 297
323 323 325 325 325 326 326 325 323 322 323 324 324 324 319 319 318 313 311 310 309 308 308 306 307 304 299 299 298 297 297 296

GFSFLT2_850_thetae_069.txt.gz
Theta_e
329 329 329 329 330 325 317 312 308 308 310 310 310 312 315 316 316 316 316 316 317 317 317 318 319 318 317 313 311 318 319 319
332 328 332 330 326 316 311 308 308 310 310 310 311 314 316 316 316 315 316 316 316 317 318 319 319 319 317 312 315 316 317 318
331 332 331 329 325 315 310 309 310 310 310 312 315 316 316 315 314 315 316 317 317 318 319 320 320 319 316 311 313 314 315 316
332 332 330 327 323 321 314 316 313 312 313 314 316 314 321 315 315 316 316 318 319 319 320 320 317 316 315 312 311 310 310 312
332 329 326 324 321 314 317 318 314 314 314 318 314 322 321 315 315 317 318 319 319 320 320 318 320 317 316 308 308 308 308 308
325 325 320 317 315 315 313 312 310 312 314 321 324 322 322 314 316 317 319 319 319 319 319 321 319 318 314 307 305 307 306 306
322 320 318 316 314 312 312 315 318 313 315 322 322 323 324 323 323 321 321 320 320 319 321 320 319 316 308 307 306 306 304 307
319 317 316 315 314 314 316 316 315 311 313 319 323 323 322 324 324 323 321 320 319 318 319 317 313 311 308 307 305 304 306 307
321 320 319 316 315 315 315 318 318 320 321 322 320 322 321 325 324 322 320 320 318 317 319 315 312 309 308 307 306 306 305 305
320 319 318 316 318 318 321 320 322 321 321 323 324 324 324 324 323 322 322 319 321 319 315 314 311 309 308 307 307 306 305 304
317 316 318 322 324 324 321 321 321 321 322 324 320 321 324 323 324 323 321 320 318 317 315 313 310 310 309 309 308 307 306 304
323 324 324 323 323 323 320 321 322 322 324 325 324 325 324 324 323 322 323 319 317 316 314 311 311 311 308 308 309 308 307 306
324 326 327 327 326 325 322 321 321 323 325 324 325 325 325 323 323 322 322 319 318 316 316 310 311 311 311 312 311 309 308 307
326 326 327 327 326 324 322 321 322 323 325 324 327 323 321 321 323 321 322 319 317 317 312 312 312 311 311 311 312 310 308 307
327 327 326 327 327 325 323 323 323 324 326 325 326 322 323 323 323 321 320 318 316 314 311 312 312 311 309 310 309 310 308 307
329 328 328 329 327 327 324 323 323 325 326 325 325 324 323 323 322 321 320 319 315 313 312 312 312 312 309 309 309 306 306 306
329 329 330 329 329 328 326 325 325 326 327 326 326 323 324 324 322 319 319 320 314 313 312 312 311 308 309 307 307 305 305 304
329 329 329 329 330 330 329 327 326 326 327 327 326 324 322 324 322 320 318 317 313 313 312 310 309 308 310 308 306 305 304 303
330 329 329 330 330 330 330 330 329 328 328 325 325 323 322 323 323 320 318 314 312 312 310 309 308 308 308 307 304 303 302 301
331 330 330 329 330 331 332 331 331 329 328 326 323 322 322 323 323 319 315 313 312 311 309 307 306 307 307 305 302 301 301 300

GFSFLT2_850_thetae_072.txt.gz
Theta_e
334 332 337 337 337 333 327 325 316 309 308 310 311 314 316 317 316 315 316 316 317 317 318 319 317 313 310 317 318 319 319 320
327 328 332 333 331 328 322 315 310 308 310 311 314 316 317 317 316 316 316 317 317 318 319 320 319 314 311 315 316 316 318 319
330 328 330 328 327 321 319 311 309 312 313 314 317 318 317 317 316 316 316 317 317 319 320 321 319 315 310 312 313 315 315 316
330 329 331 327 325 324 312 315 313 314 316 318 319 318 317 316 315 316 316 317 318 319 320 318 318 317 313 309 308 310 310 310
332 329 330 326 325 319 311 312 310 314 317 317 317 317 315 314 315 316 317 318 319 320 319 319 318 318 314 308 309 308 308 308
331 329 324 325 323 318 316 316 318 318 319 319 320 319 316 315 316 317 318 319 320 320 320 319 319 318 312 309 306 307 307 307
327 324 321 322 322 321 322 320 317 318 317 316 316 322 316 317 317 317 319 320 320 320 320 320 319 316 310 308 307 306 306 308
321 322 320 321 319 321 318 317 313 312 314 317 322 320 322 322 320 320 321 320 320 320 321 320 315 315 309 307 306 306 306 307
320 320 319 319 317 315 313 311 313 314 317 321 320 323 323 325 323 323 322 321 320 319 319 315 315 310 309 308 309 310 308 305
320 319 318 316 314 313 314 315 316 317 316 311 317 323 322 324 323 323 322 320 320 319 319 318 313 310 308 308 308 308 308 306
320 319 317 317 316 316 316 316 316 321 320 321 318 321 324 323 323 322 322 321 321 320 318 316 313 310 310 310 309 308 308 306
317 316 315 315 314 315 318 321 320 321 321 322 322 320 321 324 323 323 322 321 320 319 317 315 312 311 310 309 309 311 309 307
316 316 319 322 321 323 323 322 320 322 321 322 322 321 324 321 324 324 323 321 321 320 316 314 311 311 311 310 312 311 310 308
322 323 324 324 322 322 321 319 319 321 323 324 323 324 324 324 324 323 322 321 319 318 318 315 311 311 311 313 312 311 310 310
324 325 326 323 324 325 323 322 321 322 324 325 322 323 328 324 321 323 323 321 319 319 318 315 312 313 311 311 311 311 310 309
325 326 328 327 326 326 324 323 322 323 324 325 324 322 327 325 322 323 322 321 319 319 319 317 312 313 312 311 310 309 309 307
326 326 327 326 325 328 325 323 322 322 323 326 326 323 327 326 324 324 322 321 320 318 318 316 312 313 312 311 309 308 307 305
329 328 328 327 329 326 328 326 324 325 327 326 326 325 322 324 323 323 323 321 320 318 314 313 312 312 311 309 310 308 307 306
329 329 328 329 330 330 327 328 326 326 326 326 326 326 325 321 320 323 323 321 320 316 313 313 312 311 308 308 309 308 304 303
328 329 328 329 329 331 330 327 329 328 326 328 326 326 325 324 322 322 322 321 318 316 313 313 312 310 307 309 310 308 305 301

GFSFLT2_850_thetae_075.txt.gz
Theta_e
331 329 331 337 333 333 328 325 321 311 307 310 314 317 318 317 315 315 316 317 317 318 316 313 310 314 319 319 318 320 319 319
329 327 328 333 336 329 326 323 314 308 309 313 316 317 317 317 315 316 316 317 318 319 319 316 310 313 317 317 316 317 319 318
332 330 327 325 328 325 321 313 309 309 314 317 318 319 319 316 316 316 317 317 318 320 320 318 312 310 313 315 314 314 314 314
328 328 328 325 325 325 315 313 312 314 317 322 321 319 317 316 316 316 317 317 319 320 319 318 318 313 309 310 312 312 311 309
330 329 329 329 325 324 313 316 316 319 321 320 319 317 317 315 315 316 317 317 319 320 319 319 318 317 313 308 309 309 308 308
329 328 326 327 325 320 311 312 317 318 318 318 317 317 315 314 315 316 317 318 319 320 320 320 319 318 310 308 308 308 307 307
327 328 326 324 324 323 316 312 312 315 318 318 317 315 314 314 315 316 318 319 320 320 320 320 318 316 310 310 308 308 306 307
325 324 326 325 324 317 311 313 320 320 319 319 318 319 315 314 315 316 318 319 320 320 320 321 318 314 310 310 309 307 307 306
322 323 324 323 317 316 315 320 322 318 315 319 321 316 316 314 316 317 319 320 320 320 320 319 317 316 310 310 309 308 307 306
322 322 322 321 322 320 315 320 318 313 315 316 316 316 321 322 322 321 322 321 321 321 320 317 315 314 310 309 309 309 308 307
321 322 322 322 322 319 314 317 312 315 314 315 315 319 323 323 324 323 323 322 321 321 319 319 316 314 310 310 310 310 311 310
320 319 320 319 318 315 313 312 313 313 315 314 314 315 319 321 319 323 322 322 321 321 320 319 316 313 310 310 309 309 311 311
319 318 317 315 314 313 312 314 315 318 321 320 320 319 314 319 320 322 323 322 322 321 320 318 315 311 310 309 309 311 312 311
315 314 314 314 314 315 315 316 317 320 321 321 322 322 320 318 318 323 323 323 322 321 320 318 316 313 312 311 311 312 312 311
318 319 319 318 316 318 321 322 321 320 322 322 322 322 320 319 320 323 324 323 322 321 320 319 318 316 313 310 312 312 311 311
321 322 322 321 320 321 321 321 321 319 318 321 321 323 322 321 321 323 323 323 322 321 319 319 318 317 313 312 311 311 310 309
322 323 325 324 321 322 324 323 322 321 321 322 324 325 324 323 320 322 323 322 322 320 319 319 318 315 313 312 312 310 309 309
324 323 324 327 326 325 326 325 322 321 323 322 323 324 325 324 322 322 323 323 323 322 321 319 318 315 313 313 312 310 309 308
325 326 326 327 326 326 326 327 324 322 321 322 323 323 325 325 324 322 323 322 323 322 320 318 316 314 313 312 310 309 309 309
326 326 326 326 327 327 326 327 326 324 323 324 326 326 325 324 324 322 321 320 322 322 320 318 314 313 313 312 310 308 309 309

GFSFLT2_850_thetae_078.txt.gz
Theta_e
329 330 328 327 328 329 330 326 318 309 308 314 319 318 314 314 315 316 316 317 314 311 310 319 319 318 318 319 319 319 319 317
326 326 327 326 336 330 330 319 311 308 312 318 319 319 314 314 315 316 317 318 317 314 310 313 319 319 318 318 317 317 316 315
327 326 326 327 332 329 324 316 309 310 316 319 321 320 316 315 316 317 317 319 319 319 313 311 318 317 317 316 315 314 313 309
330 327 326 325 323 325 321 318 314 314 319 319 319 319 316 316 316 317 317 319 320 320 318 312 311 313 313 314 313 311 309 309
329 329 326 325 324 322 316 314 320 321 322 319 319 319 317 316 316 317 317 319 320 320 318 318 315 312 308 310 310 309 308 308
328 328 326 325 324 323 321 313 317 319 320 320 319 318 316 316 316 317 317 319 320 320 320 318 318 315 308 308 309 308 308 308
329 328 327 324 324 324 320 313 316 319 314 319 318 316 315 316 316 317 318 319 320 320 320 319 318 315 308 309 309 309 309 309
329 328 328 327 326 323 314 313 313 314 319 318 317 315 315 315 315 316 318 319 319 320 320 321 319 314 309 309 310 311 311 308
328 328 326 326 325 318 312 314 317 318 318 318 316 315 315 314 314 315 316 319 320 320 320 321 319 316 309 310 310 311 310 308
324 324 325 323 319 313 317 319 317 317 318 318 319 317 315 314 314 314 316 319 320 320 321 320 319 318 312 309 310 311 311 309
323 323 322 322 318 314 318 322 318 317 315 315 315 320 318 315 315 316 317 320 321 321 321 320 320 318 315 310 310 310 310 310
322 322 323 319 314 311 312 317 318 314 313 315 320 322 320 315 316 319 321 322 321 321 321 320 319 317 315 311 310 310 309 311
321 322 321 321 318 315 317 321 314 314 314 318 316 316 315 314 316 321 324 322 321 321 321 320 319 316 313 310 310 310 308 311
320 321 322 322 321 318 318 320 316 314 314 315 315 312 312 313 317 321 320 322 322 322 321 321 319 316 313 310 310 309 308 311
319 318 318 318 318 316 315 314 314 314 314 314 314 314 320 320 316 316 318 320 323 323 322 321 320 317 314 312 311 310 311 312
315 315 316 315 314 313 313 314 314 316 318 319 320 320 321 321 320 319 318 320 321 323 322 322 320 317 315 312 311 312 311 311
316 315 313 314 314 314 315 315 316 318 319 319 320 321 320 320 320 319 319 320 321 322 322 322 320 318 319 317 314 311 310 310
318 319 320 318 315 316 319 320 319 317 316 318 318 318 320 320 323 322 321 320 321 322 323 322 319 320 319 318 314 311 312 311
319 320 322 322 321 320 319 319 318 320 319 319 319 319 321 322 324 324 324 323 320 322 323 322 320 320 319 313 312 312 313 311
319 321 323 324 325 325 322 323 323 324 323 322 321 321 321 321 322 324 324 324 322 323 323 321 320 320 318 314 314 313 313 310

GFSFLT2_850_thetae_081.txt.gz
Theta_e
328 330 332 329 331 331 327 327 320 314 312 325 320 314 313 314 314 312 313 319 321 321 320 319 319 320 319 319 318 316 312 307
325 325 328 328 330 330 328 326 318 318 319 324 317 314 314 315 315 314 311 313 319 320 319 319 318 318 318 317 316 314 311 308
328 327 326 327 326 326 328 325 317 312 326 325 317 314 315 315 316 316 314 311 310 312 317 318 318 318 316 315 313 312 309 308
326 326 326 326 327 329 329 324 325 321 325 326 316 315 315 316 317 318 317 316 313 312 314 317 317 315 314 313 312 309 309 308
328 326 323 324 328 327 325 322 319 326 326 326 316 315 316 317 317 318 319 319 318 313 312 312 312 310 310 311 310 309 308 308
329 327 325 324 324 324 323 316 320 323 323 324 319 315 316 317 317 318 319 320 319 318 317 315 312 309 309 309 309 308 308 309
328 327 325 326 324 324 322 314 316 317 317 320 319 316 316 317 317 317 319 319 320 319 319 317 314 310 309 309 309 308 309 308
327 326 325 324 321 321 322 315 315 316 316 317 319 317 316 316 317 317 318 319 320 320 320 319 318 313 309 310 309 309 309 308
326 326 323 322 322 321 316 315 316 315 319 316 317 317 315 316 316 317 318 319 320 320 320 320 319 314 310 310 309 309 310 309
327 325 324 324 323 321 317 313 315 319 317 320 318 317 315 315 315 317 318 319 320 320 320 320 320 317 311 309 309 310 311 311
324 325 324 324 322 317 318 320 318 317 319 318 318 316 315 315 315 315 316 316 319 320 320 320 320 318 317 313 309 310 310 311
323 322 324 322 319 320 318 315 317 320 318 317 316 315 315 315 315 316 316 316 318 320 321 321 320 318 317 314 311 310 310 309
322 321 322 319 317 316 321 319 317 315 319 319 317 318 317 315 319 321 319 317 319 320 321 321 320 319 316 312 311 310 310 309
321 322 322 320 317 317 320 318 316 320 317 315 315 315 316 320 322 321 318 318 320 321 321 321 320 320 318 314 310 311 311 310
320 321 321 320 318 317 318 317 316 318 314 315 316 316 317 316 316 316 317 319 320 321 322 322 321 320 319 316 311 311 313 311
320 320 320 320 319 313 312 314 319 315 314 314 317 316 315 314 316 317 317 316 317 320 322 322 322 321 319 316 313 314 313 311
319 319 320 321 321 319 317 317 319 315 314 314 315 314 314 314 316 319 320 320 318 319 320 322 322 321 321 318 315 314 311 311
314 316 317 318 319 319 319 318 318 318 315 314 314 314 314 313 316 319 319 319 321 320 320 320 321 322 322 320 318 317 313 310
314 313 314 316 315 315 315 315 314 314 314 315 315 314 314 314 316 318 318 321 322 321 321 321 321 322 322 321 319 319 316 313
317 317 316 314 313 314 315 315 315 315 316 316 314 313 313 313 313 316 319 321 323 323 323 322 322 321 321 321 318 319 316 314

GFSFLT2_850_thetae_087.txt.gz
Theta_e
328 328 329 325 331 331 330 332 329 320 317 315 313 310 313 318 318 315 317 320 320 321 320 319 317 315 312 308 306 306 306 308
327 328 328 329 329 332 327 326 321 319 316 314 312 314 317 319 314 317 320 319 321 321 320 319 318 316 313 310 307 306 306 306
325 325 327 331 328 329 330 328 326 325 320 314 316 318 319 315 313 319 319 319 320 321 320 319 317 314 311 309 308 306 306 306
325 325 325 325 326 327 329 332 327 327 324 319 318 317 314 312 314 319 319 319 319 320 319 317 315 313 311 309 309 307 305 307
329 328 327 326 328 326 327 330 330 325 325 323 318 315 313 313 317 319 319 319 318 318 317 317 315 312 311 310 309 308 305 307
330 328 326 325 325 326 327 328 329 326 322 321 315 314 313 314 317 318 319 318 317 317 317 315 313 311 310 310 309 309 308 306
329 327 326 325 325 326 327 327 327 324 321 318 315 314 313 314 314 314 313 313 315 315 313 311 309 310 310 309 309 309 308 308
328 327 326 324 324 325 326 327 325 322 316 318 315 314 313 312 312 311 311 313 313 313 313 311 309 309 310 309 309 309 308 308
327 327 326 324 325 327 327 324 326 318 321 317 315 315 315 315 315 316 314 314 316 317 317 314 310 309 309 309 309 310 309 308
326 326 324 324 325 325 326 325 324 321 319 317 315 315 317 317 318 319 318 318 318 319 319 317 315 311 310 309 310 310 310 309
326 326 324 324 325 326 326 324 322 319 322 316 314 316 316 317 319 319 319 319 319 320 320 319 319 317 315 310 309 309 309 310
325 325 324 324 323 323 323 323 320 319 320 320 314 315 317 317 317 318 318 319 319 319 319 320 320 319 318 316 315 311 309 309
324 324 324 323 322 321 321 319 318 319 318 316 321 316 317 316 317 317 318 318 319 319 319 319 320 320 317 317 317 316 315 313
323 323 323 322 322 320 320 319 320 320 318 315 319 318 318 316 316 316 317 317 317 318 318 319 320 320 318 318 316 316 318 317
322 322 323 322 321 320 319 316 319 318 318 318 316 316 315 315 316 316 316 315 316 316 317 319 320 320 320 319 318 317 318 318
321 321 321 322 322 321 321 316 317 317 316 316 317 316 316 317 316 316 315 315 318 320 319 321 321 321 321 321 321 320 318 317
319 320 320 321 321 321 320 316 316 317 317 316 317 318 317 316 315 316 318 320 320 317 317 320 318 321 320 321 321 320 320 318
320 319 320 320 321 320 318 316 316 318 320 319 317 316 318 318 319 319 318 315 315 316 317 319 320 320 320 320 321 320 320 320
320 319 320 321 320 320 319 318 317 317 316 320 317 316 318 319 319 318 315 314 315 314 314 316 319 320 321 321 321 321 321 321
317 318 319 320 321 321 320 318 318 315 315 316 315 315 320 318 317 316 315 315 315 315 314 314 318 320 321 321 321 321 321 321

GFSFLT2_850_thetae_090.txt.gz
Theta_e
329 331 330 328 327 323 327 337 333 331 331 327 318 319 319 326 325 324 320 319 318 317 312 310 308 307 307 306 308 319 320 320
331 329 327 326 327 326 330 334 333 332 332 323 317 322 323 322 322 318 317 319 320 318 316 315 312 308 307 306 307 316 319 319
329 328 326 327 326 328 329 330 333 332 329 320 317 324 322 323 323 317 318 320 320 318 318 316 313 309 307 306 315 318 319 318
328 326 327 330 328 327 328 329 333 331 325 320 323 325 321 328 318 319 318 320 321 319 318 315 313 309 309 312 317 318 319 318
330 326 326 326 329 328 328 327 328 327 323 323 323 326 327 320 319 319 319 320 321 320 318 316 318 316 313 316 315 317 318 318
328 330 329 329 325 326 327 326 327 325 324 323 324 327 325 321 323 324 318 321 321 320 318 320 319 316 315 315 316 316 318 318
326 328 328 327 326 327 327 327 329 326 324 322 326 325 323 321 323 324 324 324 323 322 321 320 316 311 312 312 313 316 317 317
328 326 328 326 326 325 326 327 329 326 324 323 324 323 322 321 320 322 323 324 323 322 321 319 316 315 313 312 312 315 315 317
327 327 327 326 325 324 325 326 328 326 324 320 320 315 316 317 317 319 319 319 319 318 318 317 316 316 313 310 311 312 315 316
325 327 326 326 325 325 326 326 328 327 323 321 315 313 315 316 314 312 312 313 314 314 312 316 315 315 315 314 313 314 315 312
326 326 325 325 324 326 327 328 327 325 319 317 314 314 313 312 311 312 313 314 314 317 316 316 315 314 313 311 310 311 312 313
326 326 325 325 325 326 326 326 324 320 319 317 314 314 314 314 316 316 315 317 318 318 319 319 316 313 312 311 310 310 310 309
325 325 324 324 326 326 325 323 320 319 319 317 315 315 316 317 318 317 319 319 319 319 320 320 319 318 316 313 313 314 312 312
323 324 324 324 324 325 325 323 319 318 318 318 315 316 316 317 317 318 318 318 318 319 319 320 319 320 317 319 319 316 315 317
324 323 325 323 322 323 323 321 320 321 320 319 315 314 314 316 316 317 317 318 318 318 318 319 320 320 320 320 321 320 321 317
322 323 323 323 322 322 321 321 320 318 319 316 317 315 318 317 317 317 317 316 317 317 317 317 319 321 319 320 320 320 321 321
322 322 323 323 322 321 320 320 322 319 317 315 317 319 317 316 317 316 316 316 316 317 316 318 320 321 321 321 319 319 320 320
320 320 322 322 322 321 320 320 319 319 319 315 315 317 316 316 315 316 316 316 316 316 318 320 320 318 319 321 321 320 320 319
320 320 320 321 322 322 321 321 319 320 318 317 318 317 316 316 316 316 317 316 318 320 319 316 317 318 318 318 320 321 322 321
319 319 321 321 321 322 321 322 320 321 319 319 317 317 318 318 318 317 316 320 319 319 316 317 319 319 319 317 319 320 321 321

GFSFLT2_850_thetae_093.txt.gz
Theta_e
328 327 333 330 332 328 323 323 328 335 331 323 323 320 324 328 327 323 316 313 311 309 306 306 306 306 307 314 320 321 322 322
326 330 331 331 330 326 327 326 323 333 330 325 322 321 324 328 328 323 318 315 313 309 307 307 307 307 307 314 320 321 321 320
329 332 333 327 328 327 326 327 323 326 331 325 322 327 324 328 326 323 319 317 314 312 311 309 307 307 307 316 320 320 320 320
330 330 327 326 327 327 328 324 325 325 331 326 326 329 328 329 324 322 319 318 317 315 314 310 308 306 310 319 320 320 320 319
331 329 330 326 328 329 326 324 326 327 330 326 330 328 327 329 321 322 320 319 318 317 314 313 316 315 316 319 320 321 320 319
330 329 330 329 327 329 328 324 325 329 331 328 327 328 327 327 321 322 321 320 319 317 316 320 319 317 319 319 319 319 320 319
330 327 329 329 329 326 329 329 326 331 330 327 325 326 328 324 325 325 323 323 322 320 322 321 320 318 318 319 319 319 320 319
327 327 326 328 328 325 327 327 327 327 324 324 325 326 325 326 326 325 324 324 323 322 323 322 319 318 318 318 318 319 319 319
327 327 327 328 326 326 326 326 328 327 326 324 322 326 323 325 326 325 325 324 324 324 323 320 318 317 318 318 318 318 319 320
327 327 327 327 327 327 325 324 326 327 325 323 323 324 323 323 325 326 326 325 324 323 321 319 318 318 317 317 318 318 318 319
326 327 327 325 325 326 325 325 325 327 327 324 324 323 320 322 322 322 323 323 322 321 319 318 318 317 317 317 317 318 318 317
326 326 325 324 325 326 327 326 326 326 326 324 319 315 316 320 320 319 318 317 318 316 317 318 318 317 316 316 315 315 316 317
325 326 324 324 325 326 326 325 325 326 324 318 317 317 319 318 315 313 313 314 315 317 318 317 317 316 314 314 315 315 315 314
325 324 324 325 326 325 325 326 325 324 320 317 315 316 316 313 312 313 313 316 318 319 319 320 319 319 318 319 319 317 317 318
324 325 324 324 326 326 325 324 322 318 317 314 313 314 314 314 316 316 319 319 319 319 319 320 319 320 320 321 322 322 321 319
324 324 323 324 324 325 325 324 320 316 314 314 314 315 316 317 318 318 317 317 320 318 318 319 321 322 321 320 321 322 322 321
323 324 324 323 323 324 324 323 320 318 318 316 315 316 314 316 315 318 318 317 318 316 318 318 321 319 321 322 321 321 321 322
325 322 323 322 322 322 322 323 320 318 318 316 316 316 315 314 318 318 319 319 317 317 318 318 317 320 321 321 321 321 321 320
325 323 322 323 323 321 321 321 320 320 316 317 317 315 314 314 318 319 318 317 317 319 319 317 317 319 320 320 318 318 318 318
324 323 323 322 323 323 322 321 322 321 319 318 317 316 318 318 317 317 320 320 320 321 320 317 320 321 318 316 318 318 318 318

GFSFLT2_850_thetae_096.txt.gz
Theta_e
326 324 326 328 332 335 334 333 328 325 324 331 331 326 322 321 328 325 318 312 310 308 308 308 308 313 321 321 322 323 323 322
326 325 329 329 331 331 333 330 324 325 323 327 331 328 323 325 328 322 313 310 308 307 307 306 307 312 319 321 322 323 322 321
328 330 333 334 332 330 330 327 326 326 323 321 327 330 327 328 326 319 311 310 307 307 307 306 306 309 320 321 321 321 320 320
332 330 334 334 330 327 327 327 326 326 325 324 328 329 328 327 326 319 314 310 308 308 307 307 307 314 320 320 320 321 320 320
330 328 332 331 328 328 328 328 327 326 324 325 329 330 329 328 326 320 316 311 310 309 307 307 307 315 320 321 321 320 320 316
331 329 330 329 328 329 329 326 324 325 325 326 331 330 329 327 325 320 316 314 314 312 309 310 307 316 320 320 321 320 320 315
330 329 328 329 330 328 329 325 325 327 327 329 329 329 327 327 325 320 318 316 316 314 319 317 315 318 319 318 320 320 320 317
328 329 328 328 329 328 328 325 325 330 332 329 329 327 325 327 322 320 318 318 316 320 322 319 318 319 318 319 319 320 320 318
327 327 327 326 328 326 326 327 326 328 331 331 329 326 327 324 322 320 323 321 318 322 322 320 319 318 319 319 319 319 320 318
326 326 328 328 327 326 326 328 326 327 328 328 328 327 327 322 324 322 325 323 321 323 322 320 318 318 318 318 318 318 319 320
325 326 326 325 326 327 326 325 328 327 326 325 325 326 323 324 324 324 325 324 323 324 322 318 318 318 317 318 318 318 318 319
326 325 326 325 325 325 325 326 325 326 326 325 323 324 325 326 325 325 325 324 324 322 320 319 317 318 318 317 317 318 318 318
326 326 325 324 325 325 326 326 325 326 325 326 323 324 324 324 324 324 325 325 323 321 319 318 317 317 316 316 316 316 316 317
326 325 324 324 325 326 327 326 326 325 326 325 324 323 323 322 322 322 323 323 321 318 318 318 317 317 318 315 316 316 316 316
327 324 324 324 323 324 326 325 324 325 324 324 324 322 318 316 316 320 320 318 316 317 318 319 318 320 318 319 320 321 320 320
325 325 323 324 324 325 324 324 324 325 325 324 316 315 313 316 316 315 314 314 318 319 317 318 320 320 319 320 321 322 322 321
324 325 324 324 324 325 325 325 325 325 323 316 314 314 314 315 313 313 315 318 319 317 318 319 319 318 319 321 320 320 320 321
324 326 324 323 323 324 324 322 323 322 319 316 314 314 314 314 314 316 317 319 318 318 318 318 318 316 321 322 321 322 321 321
324 323 324 324 323 324 323 322 321 319 318 316 314 314 314 314 315 317 317 318 317 318 319 318 317 316 318 317 317 319 320 318
325 323 324 324 323 323 323 322 321 319 317 316 316 314 315 316 316 315 315 318 320 319 318 317 317 317 317 317 317 318 317 317

GFSFLT2_850_thetae_099.txt.gz
Theta_e
323 324 325 328 330 337 337 336 334 330 329 331 328 327 329 326 324 327 327 313 311 310 311 317 326 325 324 323 324 324 323 322
325 324 325 327 328 330 333 334 332 330 330 327 326 326 330 326 326 327 322 313 311 310 311 320 324 323 322 323 324 323 322 320
333 329 325 330 333 333 332 334 333 331 327 325 323 323 330 326 329 326 315 311 309 309 308 316 322 321 322 323 322 322 322 316
332 332 328 331 334 333 331 332 331 328 325 325 324 324 324 328 330 322 312 309 307 307 308 311 320 321 322 321 321 320 319 318
333 331 328 331 332 330 330 330 328 327 326 325 325 329 330 330 327 317 310 307 306 307 307 311 319 321 321 321 321 320 320 319
333 331 328 329 330 327 327 327 328 327 327 326 325 325 328 330 324 313 311 306 307 307 307 309 319 320 320 321 320 320 320 313
331 330 329 329 329 329 328 328 327 325 327 325 328 329 327 327 322 313 310 307 307 307 307 313 319 320 320 321 321 320 320 312
330 328 328 328 329 329 328 325 325 325 325 325 329 329 328 327 323 314 310 310 308 308 307 312 318 318 320 320 320 320 320 317
329 327 328 327 328 328 328 325 325 326 326 326 328 329 328 327 322 314 313 313 312 315 315 311 318 318 319 319 320 320 319 315
326 324 327 326 326 327 326 327 327 328 328 327 332 327 327 326 320 316 316 315 318 319 320 318 318 317 319 319 319 319 319 318
323 326 326 328 327 326 326 327 329 330 330 327 327 324 326 325 320 318 317 316 321 323 321 319 318 317 318 318 318 319 319 319
323 325 326 326 327 326 326 326 326 328 328 329 328 327 327 323 320 320 321 319 322 323 321 319 317 317 317 318 318 318 318 319
325 325 326 326 325 325 326 326 327 327 328 328 326 327 324 322 321 324 324 322 322 323 321 318 318 317 317 317 318 318 318 318
325 326 325 323 323 324 326 325 326 326 326 324 324 325 324 324 324 326 324 324 323 323 319 319 318 318 317 317 317 316 317 317
324 324 324 324 323 327 326 326 325 327 325 325 323 322 323 325 324 323 324 324 324 322 320 318 318 317 317 317 318 318 318 317
326 324 325 325 324 325 325 326 326 326 326 325 324 324 322 324 324 324 321 320 322 321 319 317 317 317 317 319 320 318 321 320
325 324 323 324 324 325 325 325 325 325 325 325 324 324 324 322 322 318 322 322 322 319 317 318 318 318 319 319 319 320 321 321
323 324 323 322 323 324 324 325 324 324 323 323 324 323 323 322 319 316 318 318 317 317 318 317 319 319 319 319 317 319 320 320
324 324 323 322 323 323 324 324 324 324 324 324 323 322 321 320 316 314 315 315 314 319 318 318 318 318 318 318 318 318 318 320
323 323 323 322 322 323 323 324 324 325 325 324 322 320 321 319 315 314 313 314 314 318 318 318 318 318 317 317 318 317 317 317

GFSFLT2_850_thetae_102.txt.gz
Theta_e
323 323 324 328 330 335 337 337 336 335 334 332 329 326 327 328 328 328 324 314 317 319 321 325 323 324 326 325 323 322 320 316
325 325 324 327 326 333 336 336 335 335 333 332 329 326 327 327 329 328 327 312 314 316 322 323 326 326 325 325 322 323 322 314
330 331 329 325 326 329 332 335 332 333 332 330 328 327 325 324 327 329 326 314 314 315 322 326 326 323 323 323 324 322 321 315
334 331 329 329 326 332 332 335 331 333 330 330 327 326 326 325 327 329 327 312 313 317 325 326 321 322 323 323 322 322 318 310
333 333 331 329 327 330 333 334 333 330 330 329 327 326 326 323 326 327 327 312 312 321 326 322 321 322 322 322 321 320 319 313
333 332 331 329 328 330 331 333 332 331 329 326 325 325 324 324 324 325 325 311 310 316 324 321 321 321 321 321 320 320 319 315
332 332 330 329 327 329 328 328 328 328 328 326 325 324 325 328 326 327 318 309 308 311 320 320 320 321 321 320 320 320 319 309
332 331 330 329 329 328 328 328 328 328 327 327 326 325 326 326 325 328 312 306 307 309 314 320 320 321 320 320 320 320 319 309
330 330 328 325 328 328 329 328 325 325 326 326 326 326 329 327 326 323 309 306 306 307 314 320 320 320 320 320 320 320 319 317
329 328 327 325 327 328 328 326 325 325 325 325 327 325 330 329 327 314 307 307 307 307 317 319 319 319 319 319 320 320 319 316
327 324 323 325 326 327 327 327 327 329 326 326 326 327 327 328 324 313 308 308 307 308 318 317 316 319 319 319 319 319 318 318
324 322 326 326 326 326 326 327 328 330 327 327 330 328 327 326 322 313 310 310 311 310 312 315 315 318 318 318 318 318 318 318
320 324 326 326 326 325 325 326 326 328 330 327 329 328 328 327 321 312 312 313 317 318 318 317 317 317 318 318 318 318 317 317
321 325 324 325 326 326 325 325 326 326 328 327 329 326 326 327 318 314 315 319 321 321 320 318 317 316 317 318 318 318 318 318
322 324 324 325 324 324 323 325 325 327 327 327 327 325 323 327 319 317 316 318 322 322 321 317 317 317 317 316 317 317 317 318
323 325 324 324 323 324 324 325 325 326 327 328 327 326 326 324 320 320 321 319 321 322 322 317 317 317 317 316 317 318 317 317
323 324 324 322 324 325 323 325 325 326 326 326 327 325 323 322 320 324 324 322 322 323 321 319 318 317 317 317 317 321 321 320
321 323 323 323 323 324 323 323 326 325 326 326 325 324 323 324 322 324 325 324 322 322 320 319 317 317 316 316 317 320 320 320
321 322 322 323 323 324 325 322 323 324 326 326 326 325 323 321 323 324 321 322 319 322 320 318 317 317 317 318 318 319 319 318
320 322 322 323 323 323 323 323 323 323 325 325 325 324 322 323 324 323 322 318 319 320 319 317 317 318 319 319 318 318 319 318

GFSFLT2_850_thetae_105.txt.gz
Theta_e
323 325 326 326 328 329 334 337 337 334 331 330 329 327 325 325 322 328 330 330 328 328 329 329 328 328 327 325 323 320 321 323
324 324 323 324 326 330 334 336 335 336 333 331 327 326 326 328 326 322 328 328 327 327 327 328 328 326 321 321 322 320 317 314
326 326 328 327 325 328 332 335 334 331 331 332 328 328 327 326 324 322 328 326 326 324 326 327 325 324 324 323 322 322 318 311
329 331 328 327 327 325 327 334 334 332 330 329 329 329 325 326 324 322 328 323 321 320 326 326 325 326 325 324 323 321 320 310
331 332 330 330 329 326 327 330 333 333 331 329 329 326 327 326 324 323 326 324 319 321 326 326 326 323 323 323 322 321 314 308
332 333 332 331 330 328 326 332 333 332 331 330 329 327 326 325 324 324 327 324 317 322 325 326 324 322 323 323 321 319 318 308
333 333 332 331 330 329 328 329 330 332 331 330 329 327 326 325 325 326 329 325 316 322 325 324 321 322 322 322 320 319 319 311
333 333 332 331 329 328 328 329 329 330 330 330 329 328 326 325 324 325 321 326 314 322 326 320 321 321 321 320 320 319 317 310
333 332 331 329 328 328 329 328 328 328 328 328 328 326 325 325 325 323 324 325 313 324 324 320 320 321 320 320 319 319 317 308
332 331 329 328 326 326 327 328 329 328 325 325 327 326 325 324 324 324 324 324 311 319 322 320 320 321 320 320 320 319 319 315
331 328 326 324 323 326 328 327 327 325 325 325 326 325 325 325 327 326 325 321 309 312 320 319 320 320 320 319 320 319 318 315
329 326 322 323 325 326 327 328 327 327 328 326 325 325 325 328 325 326 327 310 308 311 319 319 320 319 319 319 319 319 318 316
328 324 320 325 324 324 325 328 326 328 328 327 326 326 326 327 327 325 322 306 307 310 317 319 319 319 319 319 319 319 318 317
328 322 322 325 324 325 325 325 328 327 328 329 326 326 326 327 328 327 311 306 307 308 317 319 318 318 318 318 318 318 319 318
328 320 324 325 324 324 325 325 324 327 326 328 327 327 327 328 328 321 309 307 307 309 318 317 316 318 318 317 317 317 318 318
327 320 324 324 325 325 324 325 325 325 326 327 327 328 327 327 327 316 308 308 309 309 314 313 314 317 318 317 315 316 317 318
324 321 324 324 324 323 323 324 323 326 326 326 327 327 327 327 325 313 310 312 315 317 320 317 316 315 316 316 316 318 318 318
321 322 324 324 323 322 325 324 326 324 326 326 326 327 323 322 325 321 313 316 319 320 321 320 317 316 315 314 316 317 319 320
320 323 324 323 323 324 324 325 325 325 325 326 327 324 322 321 323 323 315 317 320 322 321 322 318 317 317 316 317 317 319 319
319 322 323 323 323 323 324 323 323 325 325 326 326 325 323 324 323 321 319 320 320 321 321 320 318 318 318 318 317 317 317 318

GFSFLT2_850_thetae_111.txt.gz
Theta_e
324 324 325 325 326 329 334 334 332 331 331 331 332 332 331 327 323 319 317 316 326 328 327 329 330 330 330 330 330 329 330 330
326 325 324 325 327 327 332 336 335 334 332 330 331 328 327 325 324 324 324 323 326 327 327 327 329 330 331 331 330 331 330 330
326 326 324 324 323 326 331 335 336 334 332 331 330 329 326 324 326 324 319 322 327 327 326 327 330 330 331 330 329 329 328 328
326 326 324 322 323 324 332 333 335 335 334 332 329 328 327 328 325 323 325 322 324 324 326 328 330 329 329 326 323 320 321 324
326 326 325 325 325 324 330 337 334 336 335 333 330 329 328 326 325 325 324 324 327 325 329 328 329 327 326 323 321 320 319 320
327 327 327 327 328 326 326 336 338 335 333 333 331 329 327 327 327 325 326 326 327 326 328 327 327 326 323 322 322 321 317 316
328 328 328 329 330 329 329 330 331 331 331 330 331 330 329 328 326 324 327 326 326 324 327 326 326 325 324 324 322 319 312 313
328 329 328 330 332 331 331 330 329 329 330 329 329 330 329 327 325 327 326 324 325 321 324 325 326 324 324 324 322 318 313 310
326 329 329 330 332 332 331 330 330 330 328 328 330 329 328 327 327 326 323 323 325 321 324 321 326 325 322 323 321 319 317 309
324 328 330 331 332 332 331 329 329 330 328 327 328 329 329 329 328 326 324 324 325 321 321 320 325 324 321 323 320 319 317 309
321 328 330 331 333 332 328 328 326 331 328 327 327 327 328 328 328 326 324 323 325 323 318 322 323 323 322 322 319 319 316 310
320 326 330 331 333 331 327 327 323 326 328 330 328 328 328 328 326 326 324 324 324 322 319 325 321 322 322 321 319 319 317 311
319 326 330 332 332 328 326 325 325 326 326 327 328 327 328 327 327 326 326 325 324 323 321 324 321 321 321 320 319 319 318 315
320 327 330 332 331 327 323 324 327 326 325 326 327 326 326 326 326 326 325 325 326 322 319 324 321 320 320 319 319 318 318 317
322 327 331 332 330 324 322 325 325 324 325 327 326 327 327 326 325 326 325 326 325 322 319 323 321 320 320 320 319 320 319 317
326 329 331 331 329 321 323 326 325 324 325 326 326 326 328 326 325 325 326 325 325 325 319 322 320 320 320 319 319 318 319 319
327 330 331 330 327 321 324 328 323 324 324 325 325 325 326 325 324 325 326 326 325 324 322 320 322 321 320 319 319 317 315 316
327 331 331 329 323 322 324 325 324 324 322 323 324 326 325 325 325 325 325 325 324 325 324 318 320 322 320 319 319 318 314 315
327 330 330 327 322 323 323 322 322 322 322 323 325 325 325 323 325 324 324 324 325 325 324 315 315 321 319 319 319 318 315 315
326 329 328 325 323 323 323 321 322 323 324 325 325 325 324 323 325 324 326 326 326 323 312 310 314 318 319 319 318 317 316 318

GFSFLT2_850_thetae_114.txt.gz
Theta_e
322 324 324 324 324 325 331 333 332 331 333 333 335 334 331 327 330 330 325 321 322 325 325 329 329 329 330 330 329 330 333 332
324 324 325 325 325 325 328 333 333 332 332 332 333 332 329 331 332 325 319 319 317 318 326 323 328 329 330 331 330 329 332 332
325 325 325 325 326 325 326 332 334 332 331 332 331 331 332 331 327 321 324 322 318 319 321 325 327 328 329 331 330 331 330 331
327 326 326 324 325 326 325 335 335 336 334 332 332 332 332 331 324 324 326 321 320 322 324 325 327 330 330 330 329 330 330 330
328 327 327 325 324 325 325 333 333 334 335 334 332 332 331 327 328 325 324 322 327 326 325 327 327 329 329 329 329 327 325 324
329 328 327 326 325 325 324 324 330 334 334 334 333 332 330 331 331 330 323 326 325 326 325 327 328 330 329 329 326 324 323 322
330 329 327 327 326 327 327 325 328 335 334 333 334 333 330 331 331 330 328 327 326 327 328 328 328 329 327 326 325 324 323 321
331 328 328 327 327 328 329 328 329 334 333 332 331 332 330 330 330 328 327 327 327 327 325 328 327 328 327 325 325 324 321 321
328 327 329 328 328 329 331 330 330 330 333 330 330 329 329 330 329 329 328 326 327 327 324 326 327 327 326 326 325 322 321 320
332 332 329 329 329 329 331 332 332 330 330 329 328 329 329 328 329 329 327 326 327 326 325 326 325 325 327 326 324 322 321 319
331 331 326 328 330 330 332 332 331 330 330 329 328 328 328 328 329 328 327 327 326 325 324 324 325 324 326 326 324 322 321 319
331 331 326 328 330 331 332 333 330 326 329 328 328 327 328 328 329 328 328 327 325 325 323 324 324 324 324 325 323 323 321 319
327 331 330 327 330 331 333 332 327 327 327 327 327 327 330 326 327 325 328 326 324 325 324 324 323 324 324 324 323 322 322 318
328 331 333 328 331 331 333 331 326 325 326 325 327 327 327 328 328 326 328 327 325 325 325 324 323 323 324 323 322 321 322 320
328 331 333 329 331 332 332 329 324 324 325 326 326 327 327 328 327 327 326 327 324 324 324 324 323 323 323 322 321 321 321 321
324 331 332 330 331 332 331 329 326 325 326 326 325 326 327 326 327 326 326 326 326 324 325 322 322 322 323 322 321 321 321 321
323 326 329 330 331 332 330 327 327 326 326 326 325 327 326 327 326 327 326 326 326 326 325 322 321 321 322 322 322 322 321 320
323 327 331 331 331 329 328 325 322 326 325 324 325 325 326 326 326 326 325 325 325 325 325 321 321 321 321 322 322 320 321 320
324 332 331 332 331 329 325 322 322 326 324 325 324 324 324 326 325 325 324 324 324 325 326 321 320 321 320 321 321 321 320 319
325 330 329 331 330 328 323 322 323 323 326 324 324 323 324 324 324 325 325 324 324 325 325 323 321 321 321 321 321 321 321 320

GFSFLT2_850_thetae_117.txt.gz
Theta_e
322 322 323 323 322 322 327 331 333 332 334 335 335 335 332 327 327 324 331 330 328 325 325 331 331 332 329 330 331 333 335 331
325 322 323 324 322 321 324 330 333 333 333 334 333 332 333 331 327 329 331 326 324 324 325 331 330 328 328 329 330 329 331 332
342 332 324 324 323 321 321 327 333 333 332 334 333 333 333 331 329 332 326 322 322 323 323 325 329 328 329 329 330 332 331 331
343 343 337 326 324 322 321 322 329 333 333 334 334 334 333 331 333 330 324 322 325 323 323 324 326 329 328 330 330 330 331 329
343 344 343 337 325 323 322 323 336 337 337 336 334 334 333 334 333 329 322 325 326 323 323 325 328 328 328 329 330 329 331 330
343 343 343 337 327 324 335 329 339 339 337 336 335 334 333 333 332 330 325 326 326 325 326 328 329 328 329 329 328 328 326 327
342 342 343 335 328 331 334 335 337 337 338 335 334 334 333 333 332 331 329 327 326 326 329 329 328 328 329 328 328 325 324 326
338 342 343 342 329 326 331 328 328 325 328 332 333 333 332 332 331 331 330 328 326 326 325 327 328 329 328 327 326 324 323 324
336 340 342 343 333 328 327 333 333 328 328 330 333 332 333 332 332 330 330 330 327 327 326 327 327 327 326 326 325 324 322 322
331 336 340 342 340 337 336 329 332 331 331 330 332 331 331 331 332 331 330 329 327 327 327 326 326 327 326 323 324 323 322 321
326 335 338 341 341 339 338 335 332 334 332 330 329 330 330 330 330 330 330 329 328 327 327 326 324 325 325 325 324 323 322 320
325 330 337 339 340 338 338 337 331 332 332 329 326 328 329 328 330 329 330 329 329 327 327 325 324 325 324 324 323 323 322 320
328 330 337 339 338 338 336 332 331 332 332 328 324 328 329 328 328 329 329 329 328 327 327 325 324 325 323 323 323 322 322 320
329 332 336 338 337 338 333 334 332 333 331 328 324 324 327 327 327 328 327 329 328 327 326 324 322 325 323 323 323 322 321 320
331 332 335 337 337 337 335 335 334 333 330 326 328 326 327 328 327 328 327 328 326 327 325 325 322 323 323 323 323 323 322 321
332 332 334 336 334 333 336 334 331 331 330 326 328 327 326 326 327 326 327 328 326 326 325 324 322 323 323 323 322 321 322 322
333 333 334 336 334 335 335 336 333 332 330 330 329 328 327 326 327 327 326 327 326 326 326 325 324 323 322 322 322 323 321 322
334 333 335 335 334 336 335 335 333 331 330 330 330 328 327 328 328 327 326 326 327 325 325 325 324 323 322 322 323 323 322 323
329 330 333 334 334 334 335 334 332 331 330 329 329 330 328 327 327 326 326 326 325 325 326 326 324 323 322 322 324 323 322 322
329 331 331 332 334 334 333 333 331 329 328 328 328 326 326 325 325 325 326 325 325 325 325 326 325 322 321 322 323 322 321 321

GFSFLT2_850_thetae_120.txt.gz
Theta_e
326 322 322 323 323 321 320 322 330 332 332 333 334 334 330 328 328 327 328 327 330 329 327 331 333 332 330 331 332 332 333 330
326 322 322 323 323 321 320 322 327 332 332 332 334 333 332 330 327 327 326 331 327 326 325 332 333 331 328 331 330 332 331 331
326 324 322 323 324 322 320 320 323 330 332 332 333 334 334 328 330 325 330 330 325 326 325 328 329 329 327 329 331 330 329 330
336 327 325 323 324 323 321 320 320 325 330 332 333 334 333 333 331 329 331 327 325 325 324 326 327 328 329 329 330 330 329 329
343 336 329 327 324 324 322 321 320 323 329 333 333 334 334 333 332 332 330 325 324 325 323 325 326 327 328 330 329 329 328 328
343 343 339 331 327 325 324 323 323 326 329 333 335 335 334 333 333 332 329 322 324 326 322 323 325 326 328 329 328 328 330 329
339 342 343 337 327 327 326 328 329 334 336 335 335 335 334 334 333 331 330 323 324 325 323 324 325 326 328 328 326 329 327 328
335 337 338 341 333 330 328 341 335 339 338 334 334 335 334 333 332 331 330 329 325 326 325 325 326 327 327 325 326 326 325 326
336 336 339 339 336 335 333 333 337 334 334 333 332 332 332 332 331 331 331 330 328 326 326 326 326 327 326 327 325 325 323 324
328 333 335 341 337 335 333 333 333 329 329 328 329 332 333 332 331 331 331 330 329 326 326 326 325 327 327 327 324 324 322 323
326 331 333 338 340 338 337 332 335 335 331 330 331 332 331 331 332 332 331 330 329 329 326 327 326 326 325 326 324 324 322 322
326 329 331 334 340 341 340 338 338 336 334 330 331 330 329 330 331 331 331 330 330 328 327 326 326 325 325 324 322 323 321 321
323 328 332 334 339 341 341 338 339 337 338 332 331 329 327 327 329 330 331 330 330 329 327 327 327 325 326 322 323 324 322 320
323 324 327 334 335 340 341 338 339 338 335 334 333 331 327 327 329 329 329 330 330 329 328 327 326 323 326 323 324 323 321 320
324 327 327 333 338 341 340 338 337 336 337 336 332 328 327 326 329 329 329 329 330 329 328 327 326 321 325 323 323 322 321 321
322 326 329 334 338 340 338 336 334 335 335 334 331 328 324 327 327 328 328 328 328 327 328 327 326 320 325 323 322 322 321 321
322 326 331 334 337 339 336 335 333 335 335 332 331 329 327 326 326 327 327 327 327 324 328 326 326 322 323 323 323 323 321 320
326 330 332 334 335 337 336 334 336 333 333 333 331 328 328 328 326 326 327 327 327 326 326 326 326 324 322 323 322 322 322 321
334 334 334 335 335 336 333 335 336 334 332 331 331 329 329 329 328 327 327 327 326 327 326 326 326 325 323 323 320 321 323 323
333 331 332 336 337 335 335 333 335 334 332 331 330 328 328 328 329 328 329 327 326 326 326 326 325 326 322 322 323 321 324 322

GFSFLT2_850_thetae_123.txt.gz
Theta_e
322 322 322 322 322 320 320 319 321 326 330 331 333 336 331 329 329 327 326 328 330 328 331 330 331 331 332 331 331 331 331 330
325 324 322 322 323 321 321 321 320 322 328 331 332 333 332 331 329 327 327 328 329 328 329 327 330 330 331 331 330 331 330 329
327 324 322 322 323 323 321 321 321 321 325 330 331 331 332 331 328 329 326 327 328 324 324 325 328 330 329 329 330 331 330 330
325 324 323 322 323 323 322 321 320 320 321 326 330 332 331 332 329 328 325 330 327 326 324 328 327 329 327 328 329 331 329 329
325 324 325 323 323 323 323 321 320 320 323 324 328 331 332 333 331 328 329 331 327 325 324 326 327 327 327 329 329 328 328 329
324 323 325 326 325 323 324 322 321 321 322 324 326 330 333 332 332 330 331 329 324 325 325 324 326 327 327 327 329 329 328 328
329 329 323 325 329 325 324 324 322 322 324 326 327 330 332 333 332 331 331 329 324 324 325 323 325 326 326 327 328 327 328 328
333 331 330 325 324 329 326 325 324 325 331 332 333 332 333 333 333 332 332 330 325 323 325 322 323 325 325 325 327 327 328 328
336 335 334 331 329 328 332 326 331 331 331 337 335 334 334 332 333 332 331 330 328 323 324 323 324 326 325 326 326 326 327 328
331 333 335 332 331 329 332 332 334 339 335 334 335 335 333 331 332 332 331 330 330 327 325 325 326 326 326 325 326 325 325 324
324 329 330 333 333 333 330 335 335 339 339 335 332 334 333 332 332 331 331 331 330 329 326 326 326 326 326 325 326 325 324 323
322 326 328 332 331 333 336 338 337 335 336 335 331 332 333 333 332 331 331 330 330 329 327 326 326 325 325 327 325 323 323 322
321 325 330 333 334 333 337 335 339 336 334 336 334 333 335 332 331 332 332 332 330 329 329 327 326 326 326 325 325 324 323 322
322 323 329 331 331 331 333 332 336 336 335 336 336 334 336 333 330 330 332 331 330 330 329 328 326 326 325 325 324 323 322 321
322 324 328 329 333 335 338 339 340 339 336 337 336 335 338 333 329 329 330 329 329 330 330 328 327 326 325 325 324 323 321 320
324 324 327 329 331 335 335 334 337 339 337 335 334 333 333 334 330 329 329 330 329 328 329 329 327 327 326 325 323 323 322 321
323 324 325 327 331 332 333 336 338 338 335 334 333 332 334 333 330 329 329 329 328 328 328 329 328 327 325 324 323 322 322 321
325 324 324 327 331 332 335 336 338 335 334 332 332 333 333 332 330 329 327 329 328 328 328 328 327 327 325 324 323 322 322 321
326 328 330 331 332 332 335 337 339 335 333 332 333 332 331 328 329 327 327 327 328 327 328 327 328 327 326 322 324 322 321 321
332 332 334 335 334 333 335 336 336 334 334 333 332 332 330 328 329 328 327 329 328 329 327 327 326 325 326 323 324 322 323 321

GFSFLT2_850_thetae_126.txt.gz
Theta_e
320 321 322 322 322 320 318 318 323 327 327 330 333 334 332 329 328 328 327 328 327 329 331 331 331 331 331 332 332 332 331 330
320 320 321 322 322 322 320 317 319 326 328 329 332 333 331 329 327 327 327 327 329 329 330 329 330 331 329 331 330 330 331 330
323 322 322 321 322 323 321 319 318 323 328 329 330 332 331 330 328 327 327 328 330 328 328 328 330 330 329 330 329 329 330 329
328 326 324 321 322 323 322 320 319 319 324 327 329 331 330 329 328 329 326 328 330 326 325 327 328 330 329 329 328 330 330 329
328 329 326 322 322 322 323 321 320 319 320 325 328 330 331 330 329 329 326 326 328 324 323 326 327 330 328 327 328 329 330 329
330 327 325 323 322 322 323 323 321 320 320 322 326 328 330 330 330 330 325 327 328 322 324 326 327 329 327 327 327 329 329 328
329 327 325 324 323 323 323 323 322 321 321 322 323 326 327 330 330 331 326 329 329 323 324 325 327 328 328 327 327 327 328 328
329 328 326 325 323 324 323 323 323 322 322 322 323 326 328 329 330 331 329 330 329 323 325 325 324 327 328 327 327 326 328 328
331 330 330 331 326 323 325 324 324 323 323 326 327 328 330 330 331 332 330 330 329 324 324 325 323 324 326 327 326 325 327 328
331 333 333 331 331 329 325 325 326 325 326 329 332 331 333 332 332 332 331 331 330 326 323 325 322 324 326 325 324 327 327 327
326 329 333 334 332 333 331 328 329 327 331 333 335 335 334 333 332 331 332 331 330 329 324 324 323 325 326 324 326 326 326 326
319 323 327 334 335 337 336 336 334 331 331 336 336 336 335 333 333 331 332 331 330 329 328 326 324 326 326 325 327 326 325 325
320 319 321 330 338 337 339 336 335 335 334 335 338 338 335 334 332 332 332 331 330 330 330 327 326 326 326 326 326 326 325 324
321 319 319 323 332 330 336 334 333 335 337 336 338 338 336 334 333 332 332 331 331 331 330 328 327 326 326 325 325 324 325 323
321 321 320 320 326 335 339 337 337 338 339 338 336 335 334 334 335 335 333 332 331 331 331 329 326 326 325 326 325 324 324 322
322 321 321 322 328 333 335 334 333 332 334 336 335 334 333 333 334 334 335 332 333 331 330 329 328 327 325 325 325 325 322 321
323 322 322 325 328 331 333 335 330 332 334 336 337 334 333 333 332 332 331 331 331 330 328 329 329 329 327 326 325 325 323 322
322 323 325 326 329 334 332 331 331 334 336 337 337 334 333 332 331 331 330 329 329 328 329 327 328 327 327 326 325 324 323 322
326 327 327 333 336 334 331 331 332 333 335 337 334 332 331 330 330 330 329 328 327 327 327 328 326 327 327 326 326 325 323 322
328 328 330 334 334 332 333 335 336 336 337 337 333 332 331 330 330 329 328 327 326 326 327 327 327 326 327 327 327 327 325 322

GFSFLT2_850_thetae_129.txt.gz
Theta_e
319 320 321 321 321 320 317 316 319 324 327 331 332 333 333 329 330 330 330 331 330 330 331 331 334 333 332 332 332 332 331 330
320 320 321 321 322 321 319 316 318 322 324 329 332 333 331 328 328 327 327 329 329 329 330 330 333 332 332 330 329 330 330 330
320 320 320 321 322 322 320 318 317 320 323 326 330 332 330 328 327 327 326 327 328 328 329 329 330 331 329 329 329 330 330 329
320 320 320 321 322 322 322 320 318 318 320 324 327 330 330 329 328 326 327 328 330 328 328 326 328 330 330 330 329 328 330 329
321 321 321 321 321 322 322 321 319 318 318 321 325 328 330 329 328 327 328 328 329 327 326 325 327 329 329 329 328 328 330 329
324 325 324 324 321 321 322 322 321 319 318 320 323 325 328 329 328 329 326 328 329 325 323 325 326 330 329 329 328 328 329 329
329 327 327 327 324 321 322 322 322 321 320 319 322 323 325 328 329 330 326 326 328 326 322 325 326 328 329 329 327 328 328 329
334 331 330 328 327 322 322 322 322 322 321 320 321 324 325 325 329 329 330 325 327 327 322 324 327 327 328 328 327 327 327 326
333 333 333 330 327 324 322 322 323 322 322 321 322 323 325 326 327 329 330 327 326 329 323 324 325 326 327 327 327 327 327 324
331 335 335 332 329 327 325 323 323 323 322 322 322 323 326 328 327 328 330 330 329 329 324 325 325 324 325 327 327 328 327 325
323 333 335 333 331 332 330 326 325 324 324 323 323 326 328 330 330 328 330 331 329 329 325 324 324 324 323 326 327 327 326 325
320 322 332 335 334 335 335 333 330 328 326 325 324 328 330 331 333 330 329 331 330 330 326 323 324 323 323 325 326 325 324 326
320 320 320 330 337 337 337 335 333 332 330 328 328 330 332 332 333 333 330 329 330 331 329 324 324 323 324 325 326 324 326 326
318 319 320 320 327 331 336 335 336 334 333 332 333 334 335 334 334 334 332 329 330 331 330 328 326 325 324 325 326 325 326 326
315 318 319 320 320 327 338 339 339 337 336 335 333 335 336 336 334 334 334 331 329 330 330 329 329 327 325 326 326 325 325 325
313 315 319 319 320 325 329 331 335 331 329 333 335 337 339 336 335 334 332 331 330 329 330 329 329 329 327 326 326 325 324 324
313 316 319 319 320 321 322 331 334 334 332 332 336 338 338 335 333 333 332 332 331 329 329 329 328 328 328 326 326 325 325 324
315 317 320 321 321 321 325 330 333 336 333 332 336 338 337 334 332 332 333 332 332 330 328 328 328 328 329 327 326 326 325 323
317 318 324 326 326 325 328 332 332 335 333 333 333 336 336 334 332 332 332 331 331 329 328 327 327 327 327 328 328 327 325 324
320 319 326 336 334 333 335 336 336 335 334 332 333 335 336 333 332 332 331 330 330 329 328 327 326 327 327 327 327 327 327 325

GFSFLT2_850_thetae_132.txt.gz
Theta_e
318 318 318 318 318 317 316 315 317 320 325 328 330 332 333 331 334 331 330 331 331 331 330 331 331 332 332 332 331 330 330 330
318 319 319 319 319 318 317 316 315 318 321 327 330 333 331 329 332 333 330 331 331 330 330 332 332 332 330 332 331 330 331 330
319 320 320 320 320 319 318 317 315 316 320 324 330 332 332 328 329 327 329 329 330 330 331 331 331 332 330 329 329 330 330 329
321 321 321 321 321 320 320 319 317 316 317 320 325 331 330 328 328 327 327 328 329 330 329 330 329 329 329 329 329 329 329 329
322 322 322 321 321 321 321 320 319 317 316 318 322 327 329 328 327 327 327 326 328 329 330 328 329 329 329 328 329 328 329 329
322 322 322 322 321 321 321 321 320 319 316 317 320 322 327 328 327 328 327 329 330 329 328 327 327 328 329 329 329 328 327 328
323 323 323 322 322 322 322 321 321 320 318 318 320 321 323 327 328 328 327 327 329 327 325 325 325 326 329 329 328 328 327 328
330 331 326 323 322 321 321 322 321 321 320 319 321 322 323 325 328 328 328 327 329 328 324 323 325 325 328 329 329 328 327 328
324 330 332 332 328 326 324 321 322 322 321 320 320 322 323 324 326 328 329 328 326 327 327 323 325 326 326 329 328 328 326 327
320 320 321 331 332 332 330 323 321 322 322 321 321 321 323 325 325 327 328 329 327 325 328 323 324 326 327 327 327 327 327 327
317 319 319 321 331 333 333 327 322 322 322 322 321 321 322 324 326 325 328 329 329 325 329 325 324 325 325 326 327 328 328 328
316 317 319 320 331 334 336 331 325 323 323 323 322 322 323 324 327 327 328 329 330 328 330 327 325 325 324 324 326 326 327 328
312 316 317 320 330 336 337 336 331 328 325 324 323 323 323 325 327 329 328 329 330 329 329 327 325 324 325 325 326 326 326 326
311 317 318 319 324 325 335 336 334 332 328 327 326 324 324 327 329 330 330 328 330 330 329 329 325 323 325 324 325 325 326 325
309 310 315 318 318 326 336 338 337 337 334 330 329 328 326 328 331 331 331 330 327 329 330 330 329 325 324 324 324 325 324 325
309 310 312 314 318 321 325 327 336 334 334 333 332 331 330 331 333 334 334 332 332 328 330 330 330 328 326 325 324 325 324 325
309 310 312 313 315 318 322 326 325 328 335 335 334 333 332 334 335 337 336 333 333 331 330 330 330 329 327 328 326 325 325 325
309 313 315 316 319 320 324 329 324 330 334 337 335 333 331 334 335 335 334 332 332 331 329 328 328 328 328 328 328 327 326 325
311 314 315 316 318 324 329 330 327 324 329 335 334 331 331 331 335 337 333 331 332 331 330 329 328 327 327 326 327 327 327 326
315 315 316 317 321 329 335 332 332 333 334 334 334 330 328 331 336 335 332 330 332 331 331 331 330 328 326 327 326 326 327 327

GFSFLT2_850_thetae_138.txt.gz
Theta_e
325 325 324 321 320 321 321 322 323 326 331 333 335 334 334 334 333 332 331 331 331 332 332 333 333 332 330 331 334 331 333 335
324 323 319 319 320 322 323 324 327 327 330 333 334 334 334 334 334 333 331 332 332 332 333 333 332 332 332 333 333 332 337 335
324 321 318 317 318 322 325 327 330 331 331 332 334 334 334 333 332 333 332 332 331 331 331 332 331 331 333 332 333 335 333 336
327 320 318 317 319 320 324 328 330 333 333 333 333 338 337 335 331 331 331 331 330 331 331 330 330 332 332 331 333 336 335 335
331 322 318 318 319 320 322 324 329 336 337 337 336 339 337 334 332 330 331 329 331 330 330 331 331 332 333 332 333 334 331 335
336 332 320 319 319 319 321 324 326 327 329 335 337 337 335 336 335 333 334 334 335 334 332 332 331 331 332 332 333 332 332 335
329 336 332 321 320 320 320 321 325 324 327 327 332 336 336 335 334 334 334 335 335 335 335 332 330 331 331 331 331 331 331 331
313 329 337 333 322 320 321 320 321 323 323 325 327 334 334 332 332 332 333 334 334 335 333 334 334 331 330 330 330 330 330 329
310 313 330 337 335 330 321 321 321 321 321 322 324 328 328 325 328 331 333 334 333 334 333 330 334 332 331 331 330 330 329 329
309 310 314 333 337 335 335 325 321 323 324 321 321 322 328 325 329 329 332 333 333 333 330 329 328 327 331 329 329 329 329 328
309 309 311 315 332 334 336 335 328 321 322 321 321 320 322 327 329 327 326 332 333 329 329 328 326 325 325 327 328 328 329 329
309 309 309 310 313 332 334 336 335 335 332 323 321 321 320 325 331 327 324 328 331 329 328 330 330 326 325 326 327 327 327 327
312 309 309 309 313 326 333 334 337 336 333 326 323 322 321 321 330 327 325 324 325 328 328 331 332 332 330 327 328 327 326 326
315 310 309 309 310 321 330 332 334 337 336 330 326 325 322 322 324 326 325 325 325 326 329 332 332 332 330 328 328 327 327 327
317 312 309 309 309 317 329 333 335 336 335 334 330 329 325 322 322 324 323 326 324 325 329 331 331 329 331 330 329 329 328 326
318 314 309 308 309 315 327 331 332 332 334 334 332 332 331 323 323 324 323 325 327 325 328 331 332 328 331 330 330 329 329 329
314 312 310 308 308 309 325 331 330 326 332 335 335 333 333 327 323 323 323 323 326 328 327 330 331 332 329 331 330 330 329 329
314 312 308 308 308 309 325 330 332 332 333 335 334 333 334 331 326 324 324 323 325 327 329 328 331 331 331 331 330 330 329 328
306 314 307 308 308 309 326 331 333 336 334 327 335 334 335 334 330 326 325 324 324 326 329 330 330 331 331 331 330 329 329 328
305 317 308 308 308 311 323 330 332 334 335 325 335 335 334 333 334 330 327 327 325 326 330 331 332 332 331 331 330 331 331 330

GFSFLT2_850_thetae_141.txt.gz
Theta_e
347 336 336 334 332 329 326 326 328 328 332 334 333 334 335 334 334 333 332 332 332 332 332 333 334 335 333 328 331 332 338 337
346 345 331 331 328 324 322 323 327 329 330 334 334 335 334 334 334 333 333 332 331 331 332 333 334 333 333 330 334 331 333 335
344 344 344 337 323 322 322 322 325 329 332 333 335 335 334 334 334 335 333 331 332 332 332 333 333 332 332 331 333 334 338 336
341 342 342 341 324 319 318 323 325 328 331 336 335 339 339 339 338 334 333 333 332 331 331 332 331 332 332 331 332 336 333 335
338 340 341 341 338 327 317 322 334 337 338 337 338 338 338 339 339 334 333 333 332 331 331 331 330 336 336 333 335 335 335 335
321 338 339 340 338 337 335 330 321 339 338 338 338 338 337 337 337 337 336 335 335 335 335 334 333 336 335 333 331 330 332 335
314 319 337 338 339 336 337 336 321 321 332 338 338 338 338 336 337 336 335 335 335 334 335 335 334 333 334 335 332 332 330 334
312 313 318 337 338 337 336 338 336 320 321 326 335 338 338 337 336 336 335 334 335 333 335 335 334 334 333 334 335 333 331 331
312 312 312 317 337 338 337 336 337 332 320 321 325 335 337 337 336 335 335 334 335 333 334 335 334 336 333 334 333 330 329 329
316 315 312 311 314 336 338 336 336 336 334 321 320 328 337 337 336 335 334 335 335 334 334 335 334 334 334 334 333 332 332 331
318 318 316 312 311 317 337 337 336 335 335 333 321 321 334 337 336 335 334 335 335 334 334 335 335 334 334 333 333 334 332 332
316 318 318 317 312 311 320 336 338 336 335 337 334 321 322 333 335 335 334 334 335 335 335 333 334 333 332 332 335 331 331 332
315 316 318 320 316 312 312 327 335 337 337 336 337 327 321 324 330 335 333 333 334 334 332 333 333 332 332 332 333 329 330 328
309 311 314 319 320 314 312 312 331 335 338 337 336 331 323 323 324 333 332 331 333 334 332 332 333 332 332 330 328 328 331 328
305 306 309 314 319 316 312 311 318 334 336 336 337 335 330 331 324 331 329 329 331 329 328 331 332 333 331 332 331 330 330 328
300 303 304 310 318 319 312 312 314 329 334 336 338 336 334 331 331 329 326 325 328 326 324 330 333 333 331 333 331 330 330 331
298 301 305 307 315 318 313 311 313 325 329 334 338 338 336 334 334 333 328 323 325 326 325 330 332 331 329 331 332 332 331 330
298 303 306 309 314 317 314 310 314 328 332 333 335 338 337 335 331 336 332 324 323 323 325 326 329 331 332 332 332 331 331 330
298 302 307 311 314 315 312 311 309 328 330 331 333 335 337 335 335 333 334 327 324 325 326 327 328 331 332 332 331 332 330 330
298 299 304 308 314 311 310 310 311 324 331 330 330 325 327 337 336 334 332 330 326 327 328 326 329 331 331 332 331 331 330 330

GFSFLT2_850_thetae_144.txt.gz
Theta_e
350 343 337 337 336 335 333 329 327 327 329 333 334 335 336 335 334 334 333 333 333 333 333 333 334 335 335 335 333 334 333 326
346 348 339 336 334 332 329 325 324 323 325 330 333 335 335 336 335 334 332 333 332 333 333 332 333 333 333 331 330 333 334 334
342 347 346 341 335 328 327 323 321 321 323 327 331 334 335 334 334 334 334 332 332 332 332 332 333 333 332 332 331 331 333 335
340 343 344 345 343 341 329 324 320 319 322 326 330 333 335 335 334 334 335 333 331 332 331 332 333 333 330 331 330 332 333 335
320 332 341 342 343 339 335 323 321 318 320 325 328 333 335 338 337 337 335 334 332 332 331 331 332 332 331 330 331 333 328 335
313 316 322 339 340 340 339 331 331 326 319 321 333 335 335 337 335 336 334 333 333 331 331 330 331 332 335 332 332 334 333 328
313 313 314 320 332 339 339 337 339 334 339 326 322 334 334 335 336 337 334 333 333 335 333 331 331 331 336 334 330 330 332 333
316 316 316 313 313 319 338 338 338 336 334 338 328 329 334 334 335 337 335 336 334 333 333 334 332 332 333 333 331 329 331 332
317 318 318 317 317 313 317 338 338 338 334 326 327 326 332 334 335 336 336 334 334 335 332 335 334 332 331 332 331 330 332 330
316 317 316 315 315 316 315 317 337 338 338 333 323 322 327 337 339 335 334 334 334 335 332 333 333 332 331 331 331 331 330 329
313 311 311 313 316 317 319 312 319 337 338 337 331 321 325 334 336 336 333 335 334 334 334 333 334 333 333 331 332 331 331 330
310 310 310 310 311 316 321 321 312 327 339 338 337 328 321 327 336 335 335 335 334 334 334 333 333 332 334 334 333 332 332 331
307 307 308 309 309 309 317 320 319 313 321 337 338 337 328 322 332 334 336 334 334 335 333 333 334 332 333 333 333 330 331 331
305 305 302 306 305 306 311 318 320 317 313 325 337 337 335 327 323 332 334 333 334 336 333 333 333 332 333 332 330 329 330 330
302 301 303 303 304 305 310 314 319 320 315 318 325 337 335 336 325 329 332 333 332 334 334 331 333 332 332 331 330 328 328 327
299 299 300 302 303 305 306 309 315 319 315 311 324 327 337 334 333 326 333 333 332 330 332 330 329 333 332 331 330 329 331 331
299 299 296 300 302 303 306 308 313 319 319 313 312 317 328 337 336 329 334 334 332 328 330 331 326 332 331 331 331 331 333 331
297 297 297 300 302 304 304 307 312 316 319 314 317 316 329 335 338 334 336 335 334 328 327 326 326 331 330 331 330 331 332 332
297 298 298 299 300 302 306 309 315 315 318 313 315 324 321 330 335 336 337 334 333 329 328 325 326 328 328 328 328 329 332 330
297 298 297 299 301 304 307 312 316 316 318 314 312 328 327 322 330 335 336 335 335 333 329 327 326 327 328 328 328 330 331 332